Location: Chenereilles
(45.4866°N, 4.0790°E)
Time: 22:06:43
(UTC+00:00)

Cosmos 1356 Rocket - Pass Details

Date: 12 November 2019
Orbit: 543 x 598 km, 81.2° (Epoch: 11 December)

Event Time Altitude Azimuth Distance (km) Brightness Sun altitude
Rises 18:02:16 0° 190° (S) 2,742 7.1 -18.5°
Reaches altitude 10° 18:04:25 10° 191° (S) 1,860 6.2 -18.9°
Maximum altitude 18:08:32 86° 278° (W) 583 3.4 -19.6°
Enters shadow 18:12:40 11° 10° (N) 1,871 5.9 -20.3°
